Location: Waco, TX
(31.5480°N, 97.1670°W)
Time: 02:46:42
(UTC-05:00)

ISS - Pass Details

Date: 25 May 2018
Orbit: 402 x 407 km, 51.6° (Epoch: 27 May)

Event Time Altitude Azimuth Distance (km) Brightness Sun altitude
Rises 21:05:16 0° 269° (W) 2,312 1.1 -8.4°
Reaches altitude 10° 21:08:19 10° 300° (WNW) 1,455 0.7 -9.0°
Maximum altitude 21:09:48 12° 327° (NNW) 1,315 -0.1 -9.2°
Drops below altitude 10° 21:11:17 10° 355° (N) 1,456 -0.5 -9.5°
Sets 21:14:21 0° 26° (NNE) 2,317 0.1 -10.1°
